Regional Weather Roundup
Issued by NWS

Home | Current Version | Previous Version | Text Only | Print | Product List | Glossary On
Versions: 1 2 3 4 5 6 7 8 9 10 11 12 13 14 15 16 17 18 19 20 21 22 23 24 25 26 27 28 29 30 31 32 33 34 35 36 37 38 39 40 41 42 43 44 45 46 47 48 49 50
000
ASUS43 KLOT 221609
RWRIL

ILLINOIS REGIONAL WEATHER ROUNDUP
NATIONAL WEATHER SERVICE CHICAGO/ROMEOVILLE IL
1100 AM CDT THU JUN 22 2017

NOTE: "FAIR" INDICATES FEW OR NO CLOUDS BELOW 12,000 FEET WITH NO
SIGNIFICANT WEATHER AND/OR OBSTRUCTIONS TO VISIBILITY.

* THESE STATIONS ARE NOT UNDER NWS QUALITY CONTROL. THEY ALSO MAY NOT
  REPORT WEATHER SUCH AS PRECIPITATION OR FOG.

ILZ001-002-007-009-015-016-024-221700-
NORTHWEST ILLINOIS

CITY           SKY/WX    TMP DP  RH WIND       PRES   REMARKS
MOLINE         SUNNY     84  68  58 SW10      29.78F HX  87
STERLING*      SUNNY     82  70  66 VRB7      29.82F HX  86
SAVANNA*       CLOUDY    79  68  68 S7        29.84R HX  82
$$

ILZ003-004-008-010-011-017-018-221700-
NORTH CENTRAL ILLINOIS

CITY           SKY/WX    TMP DP  RH WIND       PRES   REMARKS
ROCKFORD       PTSUNNY   81  67  62 SW10      29.84R HX  83
FREEPORT*      PTSUNNY   77  67  73 SW8       29.86R
ROCHELLE*      CLOUDY    82  69  65 SW13      29.84R HX  85
DE KALB*       PTSUNNY   82  69  66 SW15      29.84F HX  85
PERU*          CLOUDY    80  69  70 S9        29.84F HX  83
$$

ILZ005-006-012>014-019>023-221700-
NORTHEAST ILLINOIS

CITY           SKY/WX    TMP DP  RH WIND       PRES   REMARKS
CHICAGO-OHARE  PTSUNNY   84  66  54 SW15G21   29.82F HX  86
CHICAGO-MIDWAY PTSUNNY   84  69  60 SW17      29.83F HX  88
AURORA         CLOUDY    83  71  67 S13       29.84F HX  87
LANSING*       MOSUNNY   83  68  60 S17G24    29.86F HX  86
JOLIET*        SUNNY     83  71  67 SW13G18   29.85F HX  88
WAUKEGAN       CLOUDY    80  69  69 SW14      29.80R HX  83
DUPAGE AIRPORT CLOUDY    82  70  66 SW17      29.82F HX  86
WHEELING       PTSUNNY   83  68  60 SW15      29.82F HX  86
MORRIS*        MOSUNNY   82  69  63 SW12      29.84S HX  86
ROMEOVILLE*    SUNNY     84  67  57 S15       29.84F HX  86
NORTHERLY ISL    N/A     82  65  56 S9          N/A  HX  84
$$

LMZ740>746-221700-
SOUTHERN LAKE MICHIGAN

STATION/POSITION SKY/WX   TEMP    WIND        PRES    VSBY  WAVE
                          AIR SEA DIR/SP/G                  HT/PER
                          (F)     (DEG/KT/KT) (MB)    (MI)  (FT/S)
SOUTHERN BUOY              67 61  190/ 19/ 23 1008.4F         2/ 4
WILMETTE HARBOR            74 64  200/ 10/ 14   N/A           1/ 2
HARRISON CRIB              78     200/ 16/ 17   N/A
BURNHAM HARBOR             82                   N/A
CALUMET HARBOR             81     210/ 10/ 15 1010.2F
BURNS HARBOR               80     200/ 13/ 18 1011.5F
MICHIGAN CITY              79     180/ 15/ 18   N/A
MICHIGAN CITY 6N           74 68  200/ 10/ 12   N/A           1/ 3
ST. JOSEPH                 73 69  210/ 10/ 12 1010.6          2/ 3
$$

ILZ025>027-034>036-040-047-049-050-058-095>099-221700-
WEST-CENTRAL ILLINOIS

CITY           SKY/WX    TMP DP  RH WIND       PRES   REMARKS
QUINCY         PTSUNNY   81  71  71 S16G22    29.80F HX  85
GALESBURG*     MOSUNNY   82  70  66 S9        29.83R HX  86
MACOMB*        SUNNY     81  69  66 S10G22    29.82R HX  84
JACKSONVILLE*  CLOUDY    78  70  76 S10G21    29.84S HX  80
PITTSFIELD*    CLOUDY    78  72  80 S14       29.83F HX  81
$$

ILZ028>032-037-038-041>044-048-051>054-059>061-221700-
CENTRAL ILLINOIS

CITY           SKY/WX    TMP DP  RH WIND       PRES   REMARKS
PONTIAC        PTSUNNY   84  73  69 S16       29.87S HX  91
BLOOMINGTON    CLOUDY    79  71  76 S20       29.88R HX  82
DECATUR        PTSUNNY   81  71  71 S18G24    29.88S HX  85
PEORIA         PTSUNNY   81  71  71 S16       29.83R HX  85
LACON*         MOSUNNY   80  71  72 S9        29.83S HX  84
LINCOLN*       CLOUDY    81  71  71 S10G23    29.85S HX  85
SPRINGFIELD    CLOUDY    81  72  74 S16       29.85S HX  85
TAYLORVILLE    PTSUNNY   79  71  75 S16G22    29.87F HX  82
$$

ILZ033-039-045-046-055>057-062-063-221700-
EAST-CENTRAL ILLINOIS

CITY           SKY/WX    TMP DP  RH WIND       PRES   REMARKS
CHAMPAIGN      PTSUNNY   83  71  67 S15G21    29.89F HX  87
RANTOUL*       CLOUDY    84  73  69 S9        29.89F HX  90
MATTOON        CLOUDY    78  72  81 S8        29.90F HX  80
PARIS*         PTSUNNY   81  72  74 S13G21    29.93S HX  85
$$

ILZ079-100>102-221700-
SOUTHWEST ILLINOIS

CITY           SKY/WX    TMP DP  RH WIND       PRES   REMARKS
ALTON          CLOUDY    77  70  78 S14       29.88S
BELLEVILLE     CLOUDY    75  73  94 S9        29.89F
CAHOKIA*       CLOUDY    84  71  65 SE14G20   29.86F HX  89
SPARTA*        LGT RAIN  77  70  80 S7        29.91S
$$

ILZ064>066-069>071-074>076-080>082-084>086-088>090-092>094-221700-
SOUTH-CENTRAL ILLINOIS

CITY           SKY/WX    TMP DP  RH WIND       PRES   REMARKS
CARBONDALE     HVY RAIN  74  74 100 S9        29.90S FOG
CAIRO*         RAIN      74  73  96 SE7       29.90S
EFFINGHAM*     CLOUDY    81  72  72 S14       29.92F HX  86
MARION         CLOUDY    79  75  89 S9        29.91F HX  82
MT. VERNON     LGT RAIN  79  71  76 S8        29.91F HX  82
CENTRALIA*     CLOUDY    80  73  78 S9        29.90F HX  84
SALEM*         CLOUDY    80  70  72 S10G16    29.91F HX  83
METROPOLIS*    CLOUDY    80  72  76 S8G18     29.92S HX  83
$$

ILZ067-068-072-073-078-083-087-091-221700-
SOUTHEAST ILLINOIS

CITY           SKY/WX    TMP DP  RH WIND       PRES   REMARKS
LAWRENCEVILLE  CLOUDY    80  70  71 S16       29.95F HX  83
FLORA*         CLOUDY    80  71  73 S10       29.92F HX  84
FAIRFIELD*     CLOUDY    79  70  74 S9        29.91F HX  82
HARRISBURG*    CLOUDY    79  72  78 S14G20    29.92F HX  82
ROBINSON*      PTSUNNY   80  70  72 S10       29.94F HX  82
CARMI*         CLOUDY    79  71  75 S17G26    29.93S HX  82
$$

ABBREVIATIONS USED IN REMARKS
   TC - TEMPERATURE IN CELSIUS
  WCI - WIND CHILL INDEX
   HX - HEAT INDEX
  VSB - VISIBILITY
$$




USA.gov is the U.S. government's official web portal to all federal, state and local government web resources and services.